Regional Weather Roundup
Issued by NWS Grand Forks, ND

Home | Current Version | Previous Version | Text Only | Print | Product List | Glossary Off
Versions: 1 2 3 4 5 6 7 8 9 10 11 12 13 14 15 16 17 18 19 20 21 22 23 24 25 26 27 28 29 30 31 32 33 34 35 36 37 38 39 40 41 42 43 44 45 46 47 48 49 50

000
ASUS43 KFGF 231510
RWRFGF
PRAIRIE TO PINES  WEATHER ROUNDUP
NATIONAL WEATHER SERVICE EASTERN NORTH DAKOTA/GRAND FORKS ND
1000 AM CDT FRI JUN 23 2017

 **SATELLITE DATA USED TO AUGMENT SKY COVER AT AUTOMATED STATIONS**
 *****  WEATHER ACROSS EASTERN NORTH DAKOTA  *****

CITY           SKY/WX    TMP DP  RH WIND       PRES   REMARKS
GRAND FORKS    CLOUDY    60  51  72 NW15G26   29.84R
GRAND FRKS AFB CLOUDY    59  49  69 N17G26    29.85R
DEVILS LAKE    CLOUDY    57  45  64 NW22G28   29.92R
FARGO          CLOUDY    61  51  70 NW21      29.86R
WAHPETON ARPT  PTSUNNY   63  50  63 NW18G30   29.87S
$$

 ***** WEATHER ACROSS CENTRAL AND WESTERN NORTH DAKOTA  *****

CITY           SKY/WX    TMP DP  RH WIND       PRES   REMARKS
BISMARCK       CLOUDY    57  36  45 NW28G36   30.07R
MINOT          PTSUNNY   57  39  51 NW21G29   30.02S
JAMESTOWN      CLOUDY    57  45  64 NW24G31   29.94R
MINOT AFB      FAIR      56  39  52 NW24G30   30.00F
GARRISON         N/A     53  37  54 NW25G35   30.06R
WILLISTON      FAIR      57  39  51 NW23G30   30.14S
DICKINSON      PTSUNNY   55  33  43 NW24G33   30.13R
HETTINGER      FAIR      57  32  38 W28G36    30.16S
$$

 *****  OTHER AIRPORT OBSERVATIONS IN OUR AREA  *****

CITY           SKY/WX    TMP DP  RH WIND       PRES   REMARKS
WALHALLA       NOT AVBL
GRAFTON AIRPOR CLOUDY    57  54  88 NW20G26   29.87R
VALLEY CITY AR CLOUDY    57  50  77 NW21G31   29.93R
CANDO          NOT AVBL
CAVALIER APRT  CLOUDY    57  48  72 NW18G30   29.84R
GWINNER        CLOUDY    59  48  67 NW20G28   29.93R
SHEYENNE NWR     N/A     61  50  67 NW15      29.95S
ROLLA            N/A     54  41  62 NW28G36   29.93S
 ***** THE ABOVE OBSERVATIONS ARE NON NWS ARE NOT QUALITY
       CONTROLLED AND MAY MIS-REPORT RAIN FOR SNOW...
$$

  *****  WEATHER ACROSS NORTHERN MINNESOTA  *****

CITY           SKY/WX    TMP DP  RH WIND       PRES   REMARKS
FLAG ISLAND    PTSUNNY   59  52  77 NW15      29.70S
WARROAD        PTSUNNY   61  55  82 NW14      29.73S
ROSEAU         LGT RAIN  59  54  82 NW14G21   29.75R
HALLOCK        PTSUNNY   61  52  72 NW20G29   29.81S
THF RVR FALLS  NOT AVBL
BAUDETTE       CLOUDY    60  53  77 NW16G24   29.71R
WASKISH        CLOUDY    61  52  72 NW15G22   29.73S
CROOKSTON      PTSUNNY   63  54  72 NW21G29   29.82S
STEPHEN NDAWN    N/A     61  50  67 NW20        N/A
GREENBUSH NDAW   N/A     57  52  82 NW17        N/A
$$
  *****  WEATHER ACROSS CENTRAL AND WEST MINNESOTA  *****

CITY           SKY/WX    TMP DP  RH WIND       PRES   REMARKS
FOSSTON        CLOUDY    55  52  88 NW10G18   29.81R
BEMIDJI        CLOUDY    59  52  77 W13       29.78R
PARK RAPIDS    CLOUDY    61  48  62 NW22G29   29.79S
ELBOW LAKE     LGT RAIN  58  55  90 NW15G32   29.86S
WADENA         PTSUNNY   63  52  67 NW14G24   29.82R
DETROIT LAKES  PTSUNNY   59  54  82 NW22G28   29.84R
MOORHEAD       PTSUNNY   61  52  72 NW17      29.87R
FERGUS FALLS   PTSUNNY   57  55  94 NW18G28   29.84R
MORRIS MN      FAIR      64  54  68 NW18G33   29.85F
STAPLES        CLOUDY    61  48  63 NW16G24   29.81R
$$
  *****  WEATHER ELSEWHERE ACROSS MINNESOTA  *****

CITY           SKY/WX    TMP DP  RH WIND       PRES   REMARKS
DULUTH         PTSUNNY   62  51  67 W18G25    29.69R
INTRNTL FALLS  CLOUDY    59  51  75 NW12G21   29.68R
ELY            PTSUNNY   57  46  67 W17G23    29.64R
CLOQUET        PTSUNNY   63  46  55 W14G22    29.71S
WHEATON        PTSUNNY   63  52  67 NW18G25   29.89F
BRAINERD       CLOUDY    61  49  64 NW15G24   29.79R
HIBBING        PTSUNNY   59  49  69 NW12G23   29.70R
ALEXANDRIA     CLOUDY    59  54  83 NW17G28   29.85S
SAINT CLOUD    CLOUDY    63  53  70 NW15G22   29.78F
MINNEAPOLIS    FAIR      66  50  56 W17G23    29.80R
$$

  *****  WEATHER ACROSS SOUTH DAKOTA  *****

CITY           SKY/WX    TMP DP  RH WIND       PRES   REMARKS
SIOUX FALLS    PTSUNNY   63  53  70 NW23G30   29.97R
BROOKINGS      CLOUDY    61  51  70 NW24      29.94S
WATERTOWN      LGT RAIN  56  52  86 NW23G31   29.95R
HURON          CLOUDY    62  51  67 NW28G36   30.00R
SISSETON         N/A     64  50  60 NW25G33   29.89S
ABERDEEN       CLOUDY    59  48  67 NW22G29   29.99R
MITCHELL       PTSUNNY   63  50  62 NW25G35   30.02R
PIERRE         CLOUDY    58  47  66 NW18G31   30.10S
MOBRIDGE       PTSUNNY   60  42  51 NW18G29   30.04S
RAPID CITY     FAIR      59  39  47 N23G30    30.20F
$$

  *****  SOME WEATHER IN NEARBY STATES *****

CITY           SKY/WX    TMP DP  RH WIND       PRES   REMARKS
GLASGOW MT     PTSUNNY   55  38  52 NW15      30.22S
GREAT FALLS MT FAIR      53  38  56 SW3       30.32S
CHEYENNE WY    CLOUDY    51  37  58 N8        30.32R
SCOTTSBLUFF NE PTSUNNY   60  38  43 NW16G22   30.26R
OMAHA NE       CLOUDY    68  48  48 N20G30    29.97R
DES MOINES IA  FAIR      75  54  47 NW10      29.85S
DAVENPORT IA   FAIR      71  61  70 NW10      29.78S
CHICAGO IL     CLOUDY    71  61  70 N8        29.70S
EAU CLAIRE WI  FAIR      67  53  61 W10       29.73S
LA CROSSE WI   FAIR      73  58  59 W9        29.74S
$$

  *****  SOME NATIONAL WEATHER *****

CITY           SKY/WX    TMP DP  RH WIND       PRES   REMARKS
LA GUARDIA NY  CLOUDY    81  74  79 SW14G22   29.77F
RALEIGH NC     PTSUNNY   80  75  84 SW16      29.98F
ATLANTA GA     PTSUNNY   80  71  74 S12G21    30.03R
NEW ORLEANS LA PTSUNNY   84  76  76 S18G24    29.94R HX  93
OKLAHOMA CITY  FAIR      86  69  56 NW10      29.82R HX  90
ALBUQUERQUE NM PTSUNNY   76  32  20 N8        30.10R
SALT LAKE CITY SUNNY     70  36  28 S7        30.17R
LOS ANGELES CA CLOUDY    65  62  90 W8        29.91R FOG
BOISE ID       FAIR      59  37  44 CALM      30.21R
SEATTLE WA     FAIR      62  49  62 N9        30.24R
$$

*** WEATHER ACROSS MANITOBA...SASKATCHEWAN AND ONTARIO ***
                ***ONTARIO***

CITY           SKY/WX    TMP DP  RH WIND       PRES   REMARKS
GERALDTON      PTSUNNY   61  52  72 NW6       29.53S
THUNDER BAY    LGT RAIN  63  50  63 W9G20     29.55R
SIOUX LOOKOUT  PTSUNNY   59  52  77 NW9       29.60R
TORONTO        LGT RAIN  68  66  94 S5        29.60F
BIG TROUT LK   SUNNY     63  46  55 SE6       29.62S
PICKLE LAKE    PTSUNNY   61  48  63 NE3       29.56R
DRYDEN         PTSUNNY   61  52  72 NW10      29.63
KENORA         PTSUNNY   57  52  82 NW13      29.70R
$$
                *** MANITOBA***

CITY           SKY/WX    TMP DP  RH WIND       PRES   REMARKS
BRANDON        PTSUNNY   55  43  62 NW22G31   29.92R
DAUPHIN        CLOUDY    54  43  66 NW17G25   29.89R
ISLAND LAKE    CLOUDY    54  50  87 N12G18    29.70R
PILOT MOUND      N/A     54  45  71 NW22G30     N/A
THE PAS        DRIZZLE   48  45  87 NW16      29.88R FOG
THOMPSON       CLOUDY    46  39  76 NE15G23   29.86R
WINNIPEG       CLOUDY    57  52  82 NW22G32   29.80R
LYNN LAKE      CLOUDY    48  37  66 NE14G20   29.98R
CHURCHILL      MOSUNNY   43  37  81 N12       29.95R
GILLAM         CLOUDY    46  41  81 NE20G31   29.85R
$$
                ***SASKATCHEWAN***

CITY           SKY/WX    TMP DP  RH WIND       PRES   REMARKS
ESTEVAN        PTSUNNY   52  41  66 NW25G35   30.07S
KINDERSLEY     PTSUNNY   50  41  71 NW9       30.20S
LLOYDMINSTER   MOSUNNY   55  43  62 W10       30.17S
PRINCE ALBERT  PTSUNNY   48  37  66 NW18G28   30.08S
REGINA         MOSUNNY   52  37  58 NW29G37   30.11S
YORKTON        CLOUDY    48  39  71 NW17G26   29.99S
N. BATTLEFORD  MOSUNNY   55  39  54 W13G18    30.18S
LA RONGE       LGT RAIN  45  43  93 NW7       30.07R
SASKATOON      MOSUNNY   54  41  62 NW15G24   30.15F
SWIFT CURRENT  SUNNY     48  41  76 W8        30.20S
$$
NOTE: THESE ARE AUTOMATED STATIONS WITH LIMITED QUALITY CONTROL
      "FAIR" INDICATES FEW OR NO CLOUDS BELOW 12,000 FEET WITH NO
      SIGNIFICANT WEATHER AND/OR OBSTRUCTIONS TO VISIBILITY.
      SKY/WX - SKY CONDITION AND SIGNIFICANT WEATHER.
      TMP - AIR TEMPERATURE.    DP   - DEWPOINT TEMPERATURE.
      RH  - RELATIVE HUMIDITY.  PRES - PRESSURE.
      HX  - HEAT INDEX.         WCI  - WIND CHILL INDEX.
$



USA.gov is the U.S. government's official web portal to all federal, state and local government web resources and services.